LYS7FL LFLB-EDSB

Flight info

Callsign LYS7FL
Flight time N/A
Altitude 9000
Route CBY DCT PAS DCT PEL DCT BLM DCT REPDA DCT SUL SUL1L
Aircraft BE36/L-BDFGLORY/S

Departure

Time 2026-04-22 19:42
Airport Chambéry Aix les Bains airport (LFLB)

Arrival

Time N/A
Airport Karlsruhe Baden-Baden Airport (EDSB)
Time Latitude Longitude Altitude Speed Heading
2026-04-22 19:29 45.63558 5.88359 778 ft 0 kts 86°
2026-04-22 19:29 45.63558 5.88368 778 ft 0 kts 88°
2026-04-22 19:30 45.63558 5.88360 778 ft 0 kts 86°
2026-04-22 19:37 45.63558 5.88364 778 ft 0 kts 85°
2026-04-22 19:37 45.63579 5.88390 778 ft 17 kts 356°
2026-04-22 19:38 45.63595 5.88374 778 ft 3 kts 282°
2026-04-22 19:38 45.63587 5.88355 778 ft 0 kts 213°
2026-04-22 19:38 45.63584 5.88352 778 ft 3 kts 220°
2026-04-22 19:39 45.63543 5.88236 778 ft 13 kts 246°
2026-04-22 19:39 45.63601 5.88133 776 ft 24 kts 325°
2026-04-22 19:39 45.63773 5.88034 776 ft 23 kts 354°
2026-04-22 19:39 45.63890 5.88024 778 ft 13 kts 356°
2026-04-22 19:40 45.63928 5.88021 778 ft 0 kts 356°
2026-04-22 19:40 45.63965 5.88016 778 ft 19 kts 355°
2026-04-22 19:40 45.64101 5.87994 778 ft 14 kts 353°
2026-04-22 19:40 45.64141 5.87987 778 ft 0 kts 353°
2026-04-22 19:41 45.64228 5.87973 778 ft 14 kts 17°
2026-04-22 19:41 45.64245 5.88014 779 ft 6 kts 173°
2026-04-22 19:41 45.64208 5.88006 779 ft 25 kts 163°
2026-04-22 19:41 45.63791 5.88028 777 ft 93 kts 180°
2026-04-22 19:42 45.63049 5.88055 855 ft 120 kts 176°
2026-04-22 19:42 45.62192 5.88131 1048 ft 126 kts 176°
2026-04-22 19:42 45.61307 5.88217 1259 ft 129 kts 175°
2026-04-22 19:42 45.60468 5.88553 1444 ft 128 kts 136°
2026-04-22 19:43 45.60931 5.90424 1809 ft 125 kts
2026-04-22 19:43 45.61794 5.90522 2020 ft 117 kts
2026-04-22 19:43 45.62604 5.90577 2197 ft 120 kts
2026-04-22 19:44 45.63455 5.90634 2393 ft 124 kts
2026-04-22 19:44 45.64321 5.90692 2605 ft 125 kts
2026-04-22 19:44 45.65195 5.90751 2801 ft 127 kts
2026-04-22 19:44 45.66082 5.90817 3005 ft 128 kts
2026-04-22 19:45 45.66973 5.90882 3209 ft 129 kts
2026-04-22 19:45 45.67866 5.90948 3411 ft 128 kts
2026-04-22 19:45 45.68761 5.91015 3612 ft 129 kts
2026-04-22 19:45 45.69660 5.91081 3814 ft 129 kts
2026-04-22 19:46 45.70558 5.91146 4013 ft 129 kts
2026-04-22 19:46 45.71460 5.91211 4212 ft 130 kts
2026-04-22 19:46 45.72364 5.91277 4408 ft 130 kts
2026-04-22 19:46 45.73269 5.91345 4602 ft 130 kts
2026-04-22 19:47 45.74176 5.91411 4797 ft 130 kts
2026-04-22 19:47 45.75084 5.91477 4995 ft 131 kts
2026-04-22 19:47 45.75686 5.91521 5126 ft 131 kts
2026-04-22 19:47 45.76904 5.91608 5391 ft 131 kts
2026-04-22 19:48 45.77817 5.91674 5587 ft 131 kts
2026-04-22 19:48 45.78729 5.91741 5782 ft 131 kts
2026-04-22 19:48 45.79632 5.91807 5977 ft 132 kts
2026-04-22 19:48 45.80570 5.91875 6179 ft 133 kts
2026-04-22 19:49 45.81487 5.91942 6380 ft 134 kts
2026-04-22 19:49 45.82432 5.92011 6585 ft 134 kts
2026-04-22 19:49 45.83354 5.92079 6782 ft 134 kts
2026-04-22 19:49 45.84288 5.92146 6989 ft 135 kts
2026-04-22 19:50 45.85226 5.92214 7191 ft 135 kts
2026-04-22 19:50 45.86164 5.92282 7393 ft 135 kts
2026-04-22 19:50 45.87104 5.92351 7593 ft 135 kts
2026-04-22 19:50 45.88045 5.92419 7794 ft 135 kts
2026-04-22 19:51 45.88985 5.92488 7993 ft 135 kts
2026-04-22 19:51 45.89922 5.92557 8190 ft 135 kts
2026-04-22 19:51 45.90864 5.92626 8389 ft 136 kts
2026-04-22 19:51 45.91503 5.92673 8523 ft 136 kts
2026-04-22 19:52 45.92447 5.92742 8721 ft 136 kts
2026-04-22 19:52 45.93392 5.92811 8918 ft 136 kts
2026-04-22 19:52 45.94339 5.92880 9113 ft 136 kts
2026-04-22 19:52 45.95282 5.92949 9307 ft 136 kts
2026-04-22 19:53 45.96228 5.93018 9504 ft 136 kts
2026-04-22 19:53 45.97178 5.93088 9702 ft 137 kts
2026-04-22 19:53 45.98128 5.93158 9897 ft 137 kts
2026-04-22 19:53 45.99118 5.93232 9887 ft 150 kts
2026-04-22 19:54 46.00142 5.93309 9875 ft 135 kts
2026-04-22 19:54 46.00931 5.93369 9753 ft 97 kts
2026-04-22 19:54 46.01578 5.93420 9362 ft 96 kts
2026-04-22 19:54 46.02290 5.93474 8897 ft 107 kts
2026-04-22 19:55 46.02969 5.93526 8824 ft 87 kts
2026-04-22 19:55 46.03674 5.93578 8869 ft 112 kts
2026-04-22 19:55 46.04503 5.93639 9007 ft 125 kts
2026-04-22 19:55 46.05410 5.93703 9107 ft 137 kts
2026-04-22 19:56 46.06406 5.93764 9116 ft 148 kts
2026-04-22 19:56 46.07460 5.93829 9121 ft 154 kts
2026-04-22 19:56 46.08541 5.93896 9119 ft 157 kts
2026-04-22 19:56 46.09636 5.93959 9117 ft 158 kts
2026-04-22 19:57 46.10728 5.94086 9112 ft 158 kts
2026-04-22 19:57 46.11796 5.94425 9121 ft 158 kts 15°
2026-04-22 19:57 46.12834 5.94921 9138 ft 157 kts 19°
2026-04-22 19:57 46.13860 5.95455 9163 ft 157 kts 19°
2026-04-22 19:58 46.14882 5.95989 9183 ft 157 kts 19°
2026-04-22 19:58 46.15909 5.96527 9200 ft 157 kts 20°
2026-04-22 19:58 46.16782 5.97432 9200 ft 157 kts 50°
2026-04-22 19:58 46.17358 5.98769 9211 ft 158 kts 62°
2026-04-22 19:59 46.17848 6.00192 9204 ft 166 kts 63°
2026-04-22 20:00 46.21415 6.10714 9167 ft 182 kts 64°
2026-04-22 20:00 46.21967 6.12346 9131 ft 178 kts 64°
2026-04-22 20:01 46.22506 6.13941 9087 ft 176 kts 64°
2026-04-22 20:01 46.23040 6.15519 9047 ft 174 kts 64°
2026-04-22 20:01 46.23570 6.17087 9004 ft 173 kts 64°
2026-04-22 20:01 46.24097 6.18643 8963 ft 172 kts 64°
2026-04-22 20:02 46.24624 6.20195 8917 ft 172 kts 64°
2026-04-22 20:02 46.25149 6.21742 8874 ft 171 kts 64°
2026-04-22 20:02 46.25673 6.23286 8833 ft 171 kts 64°
2026-04-22 20:02 46.26246 6.24764 8820 ft 167 kts 50°
2026-04-22 20:03 46.26989 6.26044 8825 ft 165 kts 53°
2026-04-22 20:03 46.27635 6.27412 8824 ft 164 kts 58°
2026-04-22 20:03 46.28225 6.28821 8826 ft 164 kts 59°
2026-04-22 20:03 46.28800 6.30236 8825 ft 163 kts 59°
2026-04-22 20:04 46.29374 6.31648 8824 ft 163 kts 59°
2026-04-22 20:04 46.29948 6.33055 8825 ft 162 kts 59°
2026-04-22 20:04 46.30538 6.34501 8825 ft 172 kts 59°
2026-04-22 20:04 46.31158 6.36021 8830 ft 178 kts 59°
2026-04-22 20:05 46.31791 6.37577 8843 ft 181 kts 59°
2026-04-22 20:05 46.32424 6.39132 8844 ft 183 kts 59°
2026-04-22 20:05 46.33072 6.40724 8845 ft 184 kts 59°
2026-04-22 20:05 46.33727 6.42333 8856 ft 190 kts 59°
2026-04-22 20:06 46.34416 6.44028 8902 ft 200 kts 59°
2026-04-22 20:06 46.35134 6.45797 8961 ft 207 kts 59°
2026-04-22 20:06 46.35870 6.47608 9026 ft 210 kts 59°
2026-04-22 20:06 46.36614 6.49444 9087 ft 213 kts 59°
2026-04-22 20:07 46.37368 6.51301 9142 ft 215 kts 59°
2026-04-22 20:07 46.38127 6.53175 9154 ft 215 kts 60°
2026-04-22 20:07 46.38876 6.55025 9151 ft 211 kts 60°
2026-04-22 20:07 46.39608 6.56836 9152 ft 207 kts 60°
2026-04-22 20:08 46.40330 6.58620 9153 ft 204 kts 60°
2026-04-22 20:08 46.41041 6.60378 9154 ft 201 kts 60°
2026-04-22 20:08 46.41745 6.62120 9153 ft 199 kts 60°
2026-04-22 20:08 46.42443 6.63849 9153 ft 198 kts 60°
2026-04-22 20:09 46.43138 6.65572 9152 ft 198 kts 60°
2026-04-22 20:09 46.43597 6.66712 9151 ft 197 kts 60°